Location: Frankfurt+am+Main
(50.1100°N, 8.4815°E)
Time: 16:25:05
(UTC+01:00)

Amateur Radio Satellites - All Passes

Search period start: 21 November 2017 15:55
Search period end: 22 November 2017 15:55
Location: Frankfurt+am+Main, 50.1100°N, 8.4815°E

Satellite Date Start Highest point End Downlink Frequencies (MHz)
Time Altitude Azimuth
ITAMSAT 1 21 Nov 16:00:02 16:04:50 36° 263° (W) 16:09:39 435.822/435.867
BEESAT 21 Nov 16:15:38 16:20:26 87° 282° (WNW) 16:25:11 436.000
DX 1 21 Nov 16:16:18 16:18:05 12° 306° (NW) 16:19:52 434.975-435.025
KAITUO 1B 21 Nov 16:18:52 16:19:57 11° 58° (ENE) 16:21:03 145.475/437.950
ITUPSAT 1 21 Nov 16:25:24 16:30:10 74° 288° (WNW) 16:34:54 437.325
XW-2D 21 Nov 16:32:02 16:34:49 20° 63° (ENE) 16:37:36 145.860 - 145.880
NO-84 21 Nov 16:35:29 16:39:18 76° 150° (SSE) 16:43:25 435.350 FM
DOVE 4 21 Nov 16:35:45 16:40:51 84° 256° (WSW) 16:46:12 437.250
MOZHAYETS 4 21 Nov 16:37:40 16:41:57 41° 292° (WNW) 16:46:14
YUBILEINY 21 Nov 16:40:54 16:49:47 71° 76° (ENE) 16:58:36 435.215
XW-2B 21 Nov 16:46:25 16:49:33 26° 66° (ENE) 16:52:44 145.730 - 145.750
CUBESAT XI-V 21 Nov 16:48:57 16:53:40 74° 103° (ESE) 16:58:22 437.345
KKS-1 21 Nov 16:52:36 16:56:00 21° 92° (E) 16:59:22 437.445
NUDT-PHONESAT 21 Nov 17:01:01 17:04:06 26° 67° (ENE) 17:07:13 437.300
XW-2C 21 Nov 17:11:28 17:15:04 48° 71° (ENE) 17:18:42 145.795 - 145.815
LilacSat-2 21 Nov 17:13:30 17:17:10 55° 72° (ENE) 17:20:53 437.200
HO-68 21 Nov 17:16:23 17:22:52 38° 58° (ENE) 17:29:23 435.675
STARS 21 Nov 17:17:04 17:19:44 16° 89° (E) 17:22:24 437.465
CUTE 1.7 + AOD 2 21 Nov 17:18:38 17:21:34 19° 61° (ENE) 17:24:30 437.475
XW-2F 21 Nov 17:22:00 17:25:39 59° 73° (ENE) 17:29:20 145.980 - 146.000
AO-7 21 Nov 17:23:01 17:26:24 13° 279° (W) 17:29:48 .
CUTE-I 21 Nov 17:31:50 17:37:11 73° 71° (ENE) 17:42:34 437.470
UWE-3 21 Nov 17:37:53 17:39:34 12° 56° (NE) 17:41:16 435.000/436.395/437.385
RS-15 21 Nov 17:38:53 17:48:26 28° 101° (E) 17:57:54 29.354- 29.394
SEEDS 21 Nov 17:48:27 17:51:43 23° 63° (ENE) 17:55:01 437.485
KAITUO 1B 21 Nov 17:49:39 17:53:20 85° 261° (W) 17:57:04 145.475/437.950
BEESAT 21 Nov 17:54:50 17:57:30 15° 306° (NW) 18:00:10 436.000
AAUSAT CUBESAT 2 21 Nov 17:56:12 17:58:18 14° 58° (ENE) 18:00:25 437.432
ITUPSAT 1 21 Nov 18:05:01 18:07:11 13° 307° (NW) 18:09:19 437.325
XW-2D 21 Nov 18:05:13 18:08:45 40° 262° (W) 18:12:19 145.860 - 145.880
NO-84 21 Nov 18:13:03 18:16:54 45° 350° (N) 18:20:58 435.350 FM
CUBEBUG 2 21 Nov 18:14:41 18:18:55 39° 69° (ENE) 18:23:03 437.445
DOVE 4 21 Nov 18:16:45 18:19:21 14° 276° (W) 18:22:01 437.250
AO-73 21 Nov 18:18:12 18:20:26 14° 58° (ENE) 18:22:38 145.935
XW-2B 21 Nov 18:20:22 18:23:40 29° 264° (W) 18:27:00 145.730 - 145.750
XW-2A 21 Nov 18:21:29 18:23:57 20° 65° (ENE) 18:26:27 145.665 - 145.685
CUBESAT XI-V 21 Nov 18:27:23 18:30:31 18° 302° (WNW) 18:33:39 437.345
KKS-1 21 Nov 18:28:29 18:32:51 51° 291° (WNW) 18:37:10 437.445
Oscar 11 21 Nov 18:34:18 18:36:40 15° 57° (ENE) 18:39:01 .
NUDT-PHONESAT 21 Nov 18:34:44 18:37:54 27° 265° (W) 18:41:06 437.300
YUBILEINY 21 Nov 18:38:28 18:45:54 32° 279° (W) 18:53:19 435.215
XW-2C 21 Nov 18:47:09 18:49:31 16° 270° (W) 18:51:54 145.795 - 145.815
LilacSat-2 21 Nov 18:49:40 18:51:47 14° 270° (W) 18:53:56 437.200
STARS 21 Nov 18:52:10 18:56:34 68° 287° (WNW) 19:00:54 437.465
CUTE 1.7 + AOD 2 21 Nov 18:52:52 18:57:00 57° 260° (W) 19:01:11 437.475
XW-2F 21 Nov 18:58:18 19:00:09 13° 271° (W) 19:02:00 145.980 - 146.000
ZACube-1 21 Nov 19:01:19 19:05:16 36° 68° (ENE) 19:09:09 437.345
HO-68 21 Nov 19:03:19 19:10:23 57° 259° (WSW) 19:17:30 435.675
UWE-3 21 Nov 19:10:56 19:15:21 80° 75° (ENE) 19:19:42 435.000/436.395/437.385
CUTE-I 21 Nov 19:13:57 19:17:47 20° 271° (W) 19:21:38 437.470
FO-29 21 Nov 19:20:46 19:25:29 17° 80° (E) 19:30:05 435.910
SEEDS 21 Nov 19:23:10 19:27:10 44° 262° (W) 19:31:12 437.485
STRAND 1 21 Nov 19:25:04 19:29:45 34° 96° (E) 19:34:23 437.568
AAUSAT CUBESAT 2 21 Nov 19:29:02 19:33:10 82° 259° (W) 19:37:21 437.432
RS-15 21 Nov 19:46:52 19:59:13 82° 126° (SE) 20:11:26 29.354- 29.394
NO-84 21 Nov 19:50:50 19:54:50 46° 11° (N) 19:58:57 435.350 FM
CUBEBUG 2 21 Nov 19:51:45 19:55:38 27° 266° (W) 19:59:27 437.445
AO-73 21 Nov 19:51:49 19:56:07 82° 259° (W) 20:00:20 145.935
XW-2A 21 Nov 19:53:30 19:56:30 31° 263° (W) 19:59:31 145.665 - 145.685
DELFI C3 21 Nov 19:58:47 20:01:45 20° 63° (ENE) 20:04:44 145.870
Oscar 11 21 Nov 20:07:55 20:12:13 81° 256° (WSW) 20:16:33 .
STARS 21 Nov 20:30:53 20:32:03 11° 307° (NW) 20:33:14 437.465
ZACube-1 21 Nov 20:37:58 20:41:38 27° 266° (W) 20:45:15 437.345
UWE-3 21 Nov 20:50:16 20:52:21 13° 272° (W) 20:54:24 435.000/436.395/437.385
HO-68 21 Nov 20:57:42 20:59:45 11° 280° (W) 21:01:47 435.675
EO-88 21 Nov 20:58:13 21:01:36 38° 70° (ENE) 21:05:00 145.990 - 145.960
Max Valier Satellite 21 Nov 21:00:19 21:03:54 57° 73° (ENE) 21:07:30 145.860
FO-29 21 Nov 21:04:02 21:11:57 69° 102° (ESE) 21:19:28 435.910
STRAND 1 21 Nov 21:04:15 21:08:59 39° 295° (WNW) 21:13:42 437.568
ISS 21 Nov 21:09:09 21:11:27 18° 141° (SE) 21:13:46 437.550
LO-87 21 Nov 21:23:38 21:25:18 13° 60° (ENE) 21:26:58 145.935 - 145.965
ESTCUBE 1 21 Nov 21:24:46 21:27:12 15° 56° (NE) 21:29:39 437.505/2401.250
NO-84 21 Nov 21:28:13 21:32:26 77° 212° (SSW) 21:36:43 435.350 FM
DELFI C3 21 Nov 21:32:24 21:36:13 45° 261° (W) 21:40:05 145.870
nSIGHT-1 21 Nov 21:59:19 22:02:24 44° 153° (SSE) 22:05:30 .
RS-15 21 Nov 22:01:03 22:12:57 50° 334° (NNW) 22:24:35 29.354- 29.394
SO-50 21 Nov 22:05:01 22:09:12 40° 121° (ESE) 22:13:26 436.795
UNISAT 6 21 Nov 22:17:00 22:21:17 63° 102° (ESE) 22:25:29 437.425
O/OREOS (USA 219) 21 Nov 22:17:47 22:22:01 35° 53° (NE) 22:26:12 437.305
TIGRISAT 21 Nov 22:21:15 22:25:31 64° 101° (E) 22:29:45 435.000
EO-88 21 Nov 22:32:47 22:35:24 19° 268° (W) 22:38:02 145.990 - 145.960
Max Valier Satellite 21 Nov 22:36:16 22:38:05 13° 271° (W) 22:39:55 145.860
SPROUT 21 Nov 22:37:43 22:40:39 18° 60° (ENE) 22:43:35 437.525
ISS 21 Nov 22:44:16 22:47:31 71° 159° (SSE) 22:50:48 437.550
FO-29 21 Nov 22:49:31 22:56:26 35° 303° (WNW) 23:03:09 435.910
LO-87 21 Nov 22:54:38 22:58:13 68° 258° (WSW) 23:01:50 145.935 - 145.965
ESTCUBE 1 21 Nov 22:58:52 23:03:21 88° 257° (WSW) 23:07:53 437.505/2401.250
NO-84 21 Nov 23:06:19 23:09:19 19° 229° (SW) 23:12:18 435.350 FM
PRISM 21 Nov 23:09:40 23:13:53 78° 105° (ESE) 23:18:02 437.425
VELOX 1 21 Nov 23:18:15 23:22:07 30° 64° (ENE) 23:25:59 145.980
AIST 2D 21 Nov 23:21:09 23:24:26 36° 97° (E) 23:27:42 435.315
DUCHIFAT 1 21 Nov 23:29:23 23:31:33 14° 88° (E) 23:33:41 145.980
nSIGHT-1 21 Nov 23:35:22 23:38:35 70° 352° (N) 23:41:48 .
EO-79 21 Nov 23:36:27 23:39:38 20° 92° (E) 23:42:46 145.935-145.965
NANOSAT C BR1 21 Nov 23:39:29 23:42:34 20° 91° (E) 23:45:37 145.865
SO-50 21 Nov 23:45:29 23:49:42 38° 322° (NW) 23:53:59 436.795
POLYITAN 1 21 Nov 23:51:34 23:55:12 28° 95° (E) 23:58:50 437.675
UNISAT 6 21 Nov 23:54:42 23:57:34 18° 301° (WNW) 00:00:24 437.425
O/OREOS (USA 219) 21 Nov 23:57:17 00:01:25 34° 253° (WSW) 00:05:28 437.305
TIGRISAT 21 Nov 23:58:57 00:01:47 17° 301° (WNW) 00:04:35 435.000
DX 1 22 Nov 00:02:55 00:06:20 23° 61° (ENE) 00:09:45 434.975-435.025
SPROUT 22 Nov 00:11:52 00:16:07 62° 258° (WSW) 00:20:23 437.525
QB50P2 22 Nov 00:14:37 00:18:45 52° 100° (E) 00:22:51 145.880/145.840
RS-15 22 Nov 00:17:25 00:28:48 41° 7° (N) 00:39:43 29.354- 29.394
BUGSAT 1 22 Nov 00:20:47 00:22:17 12° 87° (E) 00:23:46 437.445
ISS 22 Nov 00:20:49 00:24:05 64° 358° (N) 00:27:21 437.550
50 SAT 22 Nov 00:34:56 00:37:57 37° 70° (ENE) 00:41:00 437.505
Oscar 19 22 Nov 00:36:38 00:38:46 12° 85° (E) 00:40:54 437.125/150
FO-29 22 Nov 00:37:10 00:39:14 11° 325° (NW) 00:41:17 435.910
ESTCUBE 1 22 Nov 00:39:15 00:40:51 12° 274° (W) 00:42:28 437.505/2401.250
UKube-1 22 Nov 00:43:25 00:47:19 34° 65° (ENE) 00:51:14 .
PCSat 22 Nov 00:43:56 00:49:14 58° 119° (ESE) 00:54:34 145.827
PRISM 22 Nov 00:46:16 00:48:35 15° 303° (WNW) 00:50:54 437.425
VELOX 1 22 Nov 00:54:21 00:58:28 37° 263° (W) 01:02:37 145.980
AIST 2D 22 Nov 00:54:46 00:57:24 20° 295° (WNW) 01:00:01 435.315
DUCHIFAT 1 22 Nov 01:03:31 01:07:42 71° 286° (WNW) 01:11:50 145.980
Gurwin Techsat 1B 22 Nov 01:04:39 01:08:01 17° 88° (E) 01:11:22 435.225
EO-79 22 Nov 01:11:35 01:15:38 47° 290° (WNW) 01:19:38 145.935-145.965
nSIGHT-1 22 Nov 01:11:45 01:14:58 77° 10° (N) 01:18:10 .
NANOSAT C BR1 22 Nov 01:14:29 01:18:33 49° 290° (WNW) 01:22:33 145.865
POLYITAN 1 22 Nov 01:27:14 01:31:02 34° 293° (WNW) 01:34:48 437.675
SO-50 22 Nov 01:28:37 01:31:22 16° 345° (NNW) 01:34:09 436.795
DX 1 22 Nov 01:37:58 01:42:13 50° 260° (W) 01:46:31 434.975-435.025
BEESAT 22 Nov 01:49:34 01:53:36 28° 62° (ENE) 01:57:39 436.000
QB50P2 22 Nov 01:51:08 01:54:13 20° 299° (WNW) 01:57:16 145.880/145.840
BUGSAT 1 22 Nov 01:54:08 01:58:12 78° 286° (WNW) 02:02:12 437.445
ISS 22 Nov 01:57:23 02:00:40 78° 199° (SSW) 02:03:56 437.550
ITUPSAT 1 22 Nov 01:59:21 02:03:36 33° 64° (ENE) 02:07:52 437.325
MOZHAYETS 4 22 Nov 02:06:43 02:11:02 43° 68° (ENE) 02:15:22
50 SAT 22 Nov 02:08:11 02:10:13 16° 268° (W) 02:12:16 437.505
Oscar 19 22 Nov 02:13:45 02:18:56 79° 104° (ESE) 02:24:07 437.125/150
UKube-1 22 Nov 02:19:30 02:23:20 30° 264° (W) 02:27:12 .
CUBESAT XI-V 22 Nov 02:21:05 02:24:14 18° 58° (ENE) 02:27:23 437.345
PCSat 22 Nov 02:28:01 02:32:57 34° 321° (NW) 02:37:54 145.827
RS-15 22 Nov 02:31:51 02:43:54 66° 39° (NE) 02:55:18 29.354- 29.394
BEESAT 3 22 Nov 02:33:14 02:36:26 23° 116° (ESE) 02:39:40 437.485
DUCHIFAT 1 22 Nov 02:41:52 02:42:34 10° 306° (NW) 02:43:17 145.980
Gurwin Techsat 1B 22 Nov 02:43:16 02:48:39 83° 286° (WNW) 02:53:58 435.225
nSIGHT-1 22 Nov 02:48:06 02:51:03 34° 211° (SSW) 02:53:59 .
M-CUBED/EXP-1 PRIME 22 Nov 03:02:37 03:06:51 38° 103° (ESE) 03:11:11 437.505
SO-50 22 Nov 03:11:08 03:13:39 14° 10° (N) 03:16:11 436.795
AO-7 22 Nov 03:19:44 03:27:23 38° 97° (E) 03:34:59 .
BEESAT 22 Nov 03:26:38 03:31:12 45° 261° (W) 03:35:48 436.000
BUGSAT 1 22 Nov 03:31:51 03:32:50 11° 305° (NW) 03:33:49 437.445
ISS 22 Nov 03:34:17 03:36:47 20° 218° (SW) 03:39:16 437.550
ITUPSAT 1 22 Nov 03:36:56 03:41:22 37° 263° (W) 03:45:50 437.325
MOZHAYETS 4 22 Nov 03:44:35 03:48:22 25° 267° (W) 03:52:10
BEESAT 2 22 Nov 03:45:27 03:49:09 36° 121° (ESE) 03:52:54 435.950
Oscar 19 22 Nov 03:54:05 03:57:42 20° 304° (NW) 04:01:18 437.125/150
KKS-1 22 Nov 03:54:33 03:58:36 34° 65° (ENE) 04:02:40 437.445
YUBILEINY 22 Nov 03:55:45 04:00:40 17° 71° (ENE) 04:05:35 435.215
CUBESAT XI-V 22 Nov 03:56:31 04:01:06 70° 257° (WSW) 04:05:44 437.345
ITAMSAT 1 22 Nov 04:07:28 04:12:38 56° 101° (ESE) 04:17:43 435.822/435.867
BEESAT 3 22 Nov 04:09:49 04:13:43 50° 316° (NW) 04:17:39 437.485
PCSat 22 Nov 04:14:56 04:18:01 15° 346° (NNW) 04:21:06 145.827
STARS 22 Nov 04:17:25 04:21:05 26° 63° (ENE) 04:24:46 437.465
Gurwin Techsat 1B 22 Nov 04:24:33 04:27:50 17° 307° (NW) 04:31:05 435.225
DOVE 4 22 Nov 04:30:45 04:34:47 22° 89° (E) 04:38:42 437.250
M-CUBED/EXP-1 PRIME 22 Nov 04:37:08 04:41:08 33° 300° (WNW) 04:45:16 437.505
RS-15 22 Nov 04:44:55 04:56:09 52° 246° (WSW) 05:06:50 29.354- 29.394
SO-50 22 Nov 04:51:25 04:55:30 30° 34° (NE) 04:59:38 436.795
AO-85 22 Nov 05:01:47 05:05:41 75° 128° (SE) 05:09:50 145.980
STRAND 1 22 Nov 05:09:10 05:12:01 15° 53° (NE) 05:14:52 437.568
AO-7 22 Nov 05:12:23 05:20:35 63° 298° (WNW) 05:28:47 .
BEESAT 2 22 Nov 05:23:09 05:26:54 36° 320° (NW) 05:30:41 435.950
KKS-1 22 Nov 05:31:09 05:35:09 32° 264° (W) 05:39:12 437.445
XW-2D 22 Nov 05:33:38 05:35:56 15° 90° (E) 05:38:14 145.860 - 145.880
FO-29 22 Nov 05:39:34 05:43:28 16° 41° (NE) 05:47:32 435.910
CUTE-I 22 Nov 05:44:55 05:48:50 20° 90° (E) 05:52:45 437.470
YUBILEINY 22 Nov 05:47:05 05:55:43 69° 94° (E) 06:04:29 435.215
ITAMSAT 1 22 Nov 05:47:29 05:51:46 26° 301° (WNW) 05:56:02 435.822/435.867
XW-2B 22 Nov 05:48:01 05:50:56 20° 93° (E) 05:53:50 145.730 - 145.750
BEESAT 3 22 Nov 05:49:47 05:52:08 15° 338° (NNW) 05:54:30 437.485
STARS 22 Nov 05:53:00 05:57:14 43° 261° (W) 06:01:29 437.465
NUDT-PHONESAT 22 Nov 05:59:59 06:02:43 19° 92° (E) 06:05:27 437.300
PCSat 22 Nov 06:00:49 06:03:45 14° 12° (NNE) 06:06:42 145.827
DOVE 4 22 Nov 06:07:42 06:12:53 61° 289° (WNW) 06:17:49 437.250
XW-2C 22 Nov 06:13:12 06:16:47 38° 98° (E) 06:20:21 145.795 - 145.815
LilacSat-2 22 Nov 06:16:02 06:19:43 43° 98° (E) 06:23:24 437.200
XW-2F 22 Nov 06:23:10 06:26:50 45° 99° (E) 06:30:29 145.980 - 146.000
HO-68 22 Nov 06:26:19 06:31:58 24° 90° (E) 06:37:33 435.675
SO-50 22 Nov 06:31:43 06:36:17 61° 234° (SW) 06:40:54 436.795
CUTE 1.7 + AOD 2 22 Nov 06:33:35 06:36:36 18° 90° (E) 06:39:37 437.475
AO-85 22 Nov 06:43:19 06:46:34 23° 330° (NNW) 06:50:00 145.980
STRAND 1 22 Nov 06:45:15 06:50:24 77° 72° (ENE) 06:55:34 437.568
KAITUO 1B 22 Nov 06:49:42 06:53:29 72° 102° (ESE) 06:57:15 145.475/437.950
UWE-3 22 Nov 06:58:05 06:59:08 11° 86° (E) 07:00:12 435.000/436.395/437.385
RS-15 22 Nov 07:01:55 07:05:17 12° 271° (W) 07:08:37 29.354- 29.394
SEEDS 22 Nov 07:02:21 07:05:43 22° 92° (E) 07:09:03 437.485
BEESAT 2 22 Nov 07:03:49 07:05:44 13° 343° (NNW) 07:07:41 435.950
AO-7 22 Nov 07:06:09 07:11:52 21° 321° (NW) 07:17:36 .
XW-2D 22 Nov 07:06:42 07:10:25 53° 288° (WNW) 07:14:09 145.860 - 145.880
AAUSAT CUBESAT 2 22 Nov 07:08:07 07:09:46 12° 87° (E) 07:11:25 437.432
XW-2A 22 Nov 07:11:44 07:12:42 11° 89° (E) 07:13:40 145.665 - 145.685
FO-29 22 Nov 07:20:09 07:26:45 51° 64° (ENE) 07:34:04 435.910
XW-2B 22 Nov 07:21:41 07:25:15 38° 290° (WNW) 07:28:48 145.730 - 145.750
CUTE-I 22 Nov 07:24:03 07:29:26 70° 289° (WNW) 07:34:45 437.470
NUDT-PHONESAT 22 Nov 07:33:14 07:36:43 39° 290° (WNW) 07:40:12 437.300
AO-73 22 Nov 07:36:21 07:38:23 13° 88° (E) 07:40:25 145.935
CUBEBUG 2 22 Nov 07:37:00 07:41:01 44° 98° (E) 07:45:00 437.445
PCSat 22 Nov 07:44:05 07:48:55 31° 37° (NE) 07:53:44 145.827
YUBILEINY 22 Nov 07:45:28 07:53:16 34° 297° (WNW) 08:01:11 435.215
UNISAT 6 22 Nov 07:45:38 07:48:08 15° 57° (ENE) 07:50:36 437.425
DOVE 4 22 Nov 07:47:28 07:49:29 12° 309° (NW) 07:51:29 437.250
XW-2C 22 Nov 07:47:47 07:50:46 22° 296° (WNW) 07:53:44 145.795 - 145.815
TIGRISAT 22 Nov 07:49:45 07:52:15 15° 57° (ENE) 07:54:44 435.000
LilacSat-2 22 Nov 07:50:54 07:53:43 20° 297° (WNW) 07:56:33 437.200
Oscar 11 22 Nov 07:51:44 07:54:01 14° 88° (E) 07:56:20 .
XW-2F 22 Nov 07:57:56 08:00:39 19° 297° (WNW) 08:03:21 145.980 - 146.000
CUTE 1.7 + AOD 2 22 Nov 08:08:34 08:12:45 54° 289° (WNW) 08:16:55 437.475
HO-68 22 Nov 08:13:16 08:20:30 81° 291° (WNW) 08:27:40 435.675
ZACube-1 22 Nov 08:20:34 08:24:29 40° 98° (E) 08:28:25 437.345
KAITUO 1B 22 Nov 08:25:08 08:26:57 13° 301° (WNW) 08:28:45 145.475/437.950
STRAND 1 22 Nov 08:26:48 08:30:11 17° 272° (W) 08:33:34 437.568
AO-85 22 Nov 08:26:49 08:28:31 12° 355° (N) 08:30:17 145.980
PRISM 22 Nov 08:30:01 08:32:13 14° 57° (ENE) 08:34:26 437.425
UWE-3 22 Nov 08:32:04 08:36:15 86° 284° (WNW) 08:40:23 435.000/436.395/437.385
SEEDS 22 Nov 08:37:32 08:41:35 43° 291° (WNW) 08:45:37 437.485
AAUSAT CUBESAT 2 22 Nov 08:41:34 08:45:47 82° 284° (WNW) 08:49:58 437.432
XW-2A 22 Nov 08:42:27 08:45:46 59° 287° (WNW) 08:49:05 145.665 - 145.685
BEESAT 2 22 Nov 08:44:16 08:45:12 11° 7° (N) 08:46:09 435.950
DELFI C3 22 Nov 09:05:09 09:07:48 17° 90° (E) 09:10:25 145.870
FO-29 22 Nov 09:05:34 09:11:57 41° 267° (W) 09:19:02 435.910
CUTE-I 22 Nov 09:05:44 09:08:33 15° 309° (NW) 09:11:22 437.470
BEESAT 3 22 Nov 09:07:49 09:10:27 17° 25° (NNE) 09:13:05 437.485
AO-73 22 Nov 09:10:59 09:15:07 71° 287° (WNW) 09:19:16 145.935
CUBEBUG 2 22 Nov 09:14:10 09:17:25 22° 298° (WNW) 09:20:37 437.445
UNISAT 6 22 Nov 09:19:42 09:24:16 86° 255° (WSW) 09:28:44 437.425
TIGRISAT 22 Nov 09:23:48 09:28:22 86° 257° (WSW) 09:32:50 435.000
Oscar 11 22 Nov 09:26:21 09:30:41 74° 287° (WNW) 09:35:00 .
PCSat 22 Nov 09:27:20 09:32:44 66° 239° (WSW) 09:38:06 145.827
QB50P2 22 Nov 09:39:21 09:40:19 11° 54° (NE) 09:41:16 145.880/145.840
EO-88 22 Nov 09:55:35 09:58:43 26° 95° (E) 10:01:52 145.990 - 145.960
ZACube-1 22 Nov 09:57:15 10:00:36 24° 296° (WNW) 10:03:57 437.345
Max Valier Satellite 22 Nov 09:59:07 10:02:36 40° 98° (E) 10:06:05 145.860
AIST 2D 22 Nov 09:59:37 10:02:34 27° 67° (ENE) 10:05:33 435.315
HO-68 22 Nov 10:01:59 10:07:16 23° 312° (NW) 10:12:32 435.675
PRISM 22 Nov 10:02:46 10:06:55 81° 258° (WSW) 10:11:06 437.425
AO-85 22 Nov 10:07:56 10:10:42 16° 20° (NNE) 10:13:36 145.980
UWE-3 22 Nov 10:10:26 10:12:02 12° 304° (NW) 10:13:37 435.000/436.395/437.385
AAUSAT CUBESAT 2 22 Nov 10:19:00 10:20:32 12° 304° (NW) 10:22:04 437.432
BEESAT 2 22 Nov 10:21:12 10:24:23 22° 31° (NNE) 10:27:33 435.950
DUCHIFAT 1 22 Nov 10:25:01 10:28:04 20° 61° (ENE) 10:31:07 145.980
EO-79 22 Nov 10:32:50 10:36:28 28° 65° (ENE) 10:40:06 145.935-145.965
NANOSAT C BR1 22 Nov 10:35:31 10:39:04 27° 64° (ENE) 10:42:38 145.865
DELFI C3 22 Nov 10:38:56 10:42:51 53° 288° (WNW) 10:46:45 145.870
BEESAT 3 22 Nov 10:44:46 10:48:44 65° 48° (NE) 10:52:37 437.485
ESTCUBE 1 22 Nov 10:47:52 10:50:23 15° 88° (E) 10:52:53 437.505/2401.250
POLYITAN 1 22 Nov 10:48:03 10:51:59 38° 68° (ENE) 10:55:55 437.675
AO-73 22 Nov 10:50:12 10:50:36 10° 305° (NW) 10:50:59 145.935
UNISAT 6 22 Nov 11:00:08 11:01:37 11° 274° (W) 11:03:07 437.425
TIGRISAT 22 Nov 11:04:16 11:05:43 11° 274° (W) 11:07:08 435.000
Oscar 11 22 Nov 11:04:43 11:06:03 11° 305° (NW) 11:07:24 .
QB50P2 22 Nov 11:11:05 11:15:20 71° 72° (ENE) 11:19:34 145.880/145.840
PCSat 22 Nov 11:13:22 11:15:06 11° 258° (WSW) 11:16:50 145.827
BUGSAT 1 22 Nov 11:14:05 11:16:52 17° 60° (ENE) 11:19:37 437.445
EO-88 22 Nov 11:29:11 11:32:20 27° 293° (WNW) 11:35:28 145.990 - 145.960
AIST 2D 22 Nov 11:32:50 11:35:43 24° 266° (W) 11:38:38 435.315
Max Valier Satellite 22 Nov 11:33:31 11:36:11 19° 296° (WNW) 11:38:51 145.860
AO-85 22 Nov 11:47:47 11:52:09 45° 42° (NE) 11:56:51 145.980
LO-87 22 Nov 11:49:59 11:53:33 78° 102° (ESE) 11:57:05 145.935 - 145.965
SPROUT 22 Nov 11:53:39 11:56:23 16° 90° (E) 11:59:04 437.525
Oscar 19 22 Nov 11:56:57 12:01:22 30° 62° (ENE) 12:05:48 437.125/150
BEESAT 2 22 Nov 11:58:32 12:02:36 81° 232° (SW) 12:06:36 435.950
DUCHIFAT 1 22 Nov 11:59:16 12:03:24 54° 259° (W) 12:07:32 145.980
EO-79 22 Nov 12:08:13 12:12:07 35° 263° (W) 12:16:03 145.935-145.965
NANOSAT C BR1 22 Nov 12:10:44 12:14:39 37° 263° (W) 12:18:35 145.865
M-CUBED/EXP-1 PRIME 22 Nov 12:20:40 12:22:29 13° 49° (NE) 12:24:22 437.505
ESTCUBE 1 22 Nov 12:23:11 12:27:44 77° 286° (WNW) 12:32:16 437.505/2401.250
BEESAT 3 22 Nov 12:23:12 12:25:50 17° 246° (WSW) 12:28:26 437.485
POLYITAN 1 22 Nov 12:24:20 12:27:53 25° 266° (W) 12:31:24 437.675
Gurwin Techsat 1B 22 Nov 12:29:40 12:34:38 41° 65° (ENE) 12:39:37 435.225
AO-7 22 Nov 12:34:00 12:40:11 24° 42° (NE) 12:46:23 .
O/OREOS (USA 219) 22 Nov 12:36:23 12:39:09 16° 99° (E) 12:41:55 437.305
VELOX 1 22 Nov 12:39:20 12:43:17 30° 95° (E) 12:47:11 145.980
BUGSAT 1 22 Nov 12:47:39 12:51:48 62° 259° (WSW) 12:55:56 437.445
QB50P2 22 Nov 12:49:18 12:51:36 14° 272° (W) 12:53:53 145.880/145.840
50 SAT 22 Nov 13:20:09 13:22:19 17° 93° (E) 13:24:27 437.505
DX 1 22 Nov 13:21:53 13:25:10 20° 92° (E) 13:28:26 434.975-435.025
LO-87 22 Nov 13:25:20 13:26:24 11° 301° (WNW) 13:27:28 145.935 - 145.965
AO-85 22 Nov 13:28:17 13:32:32 35° 240° (WSW) 13:37:03 145.980
SPROUT 22 Nov 13:28:27 13:32:40 61° 288° (WNW) 13:36:50 437.525
Oscar 19 22 Nov 13:35:36 13:40:31 46° 261° (W) 13:45:28 437.125/150
BEESAT 2 22 Nov 13:38:26 13:39:36 11° 251° (WSW) 13:40:47 435.950
ITAMSAT 1 22 Nov 13:52:04 13:56:13 25° 58° (ENE) 14:00:23 435.822/435.867
M-CUBED/EXP-1 PRIME 22 Nov 13:52:31 13:56:11 89° 249° (WSW) 14:00:11 437.505
YUBILEINY 22 Nov 13:56:28 14:00:02 13° 40° (NE) 14:03:35 435.215
UKube-1 22 Nov 14:01:16 14:05:08 30° 96° (E) 14:08:58 .
ESTCUBE 1 22 Nov 14:01:51 14:03:46 13° 306° (NW) 14:05:42 437.505/2401.250
Gurwin Techsat 1B 22 Nov 14:09:50 14:14:39 34° 264° (W) 14:19:31 435.225
O/OREOS (USA 219) 22 Nov 14:13:22 14:17:58 74° 299° (WNW) 14:22:36 437.305
VELOX 1 22 Nov 14:15:41 14:19:47 36° 294° (WNW) 14:23:50 145.980
AO-7 22 Nov 14:23:29 14:31:44 74° 65° (ENE) 14:40:02 .
NO-84 22 Nov 14:25:21 14:26:55 12° 126° (SE) 14:28:32 435.350 FM
50 SAT 22 Nov 14:51:34 14:54:32 34° 291° (WNW) 14:57:29 437.505
DX 1 22 Nov 14:57:22 15:01:38 52° 291° (WNW) 15:05:54 434.975-435.025
BEESAT 22 Nov 15:21:51 15:26:07 32° 96° (E) 15:30:21 436.000
ITAMSAT 1 22 Nov 15:30:06 15:35:18 62° 258° (WSW) 15:40:31 435.822/435.867
ITUPSAT 1 22 Nov 15:32:14 15:36:42 38° 98° (E) 15:41:07 437.325
MOZHAYETS 4 22 Nov 15:33:39 15:38:08 53° 100° (E) 15:42:36
CUTE-I 22 Nov 15:35:50 15:37:06 11° 47° (NE) 15:38:22 437.470
UKube-1 22 Nov 15:37:15 15:41:09 33° 295° (WNW) 15:45:03 .
DOVE 4 22 Nov 15:39:41 15:44:21 36° 65° (ENE) 15:49:09 437.250
